Homepage

Classifica generale torneo ciclismo FantaTour de France

Tipo classifica
Classifica generale Classifiche di giornata
Classifica dei miei amici
Filtra per giocatore

Livelli di anzianitą utente
Baby Dilettante Junior Senior Master Guru Saggio Nonno Tutti i livelli Help

Variaz. Squadra Tempo Dist.
51 (52) SKY TEAM 250:11:16 1:02:35
52 (51) Grifondoro 250:12:01 1:03:20
53 (55) Irriduciclibili 250:12:41 1:04:00
54 (53) Leo86 250:12:54 1:04:13
55 (56) I.IULIANO`S TEAM 250:12:55 1:04:14
56 (54) ONORE AL PIRATA 250:13:46 1:05:05
57 (61) WilliW 250:14:21 1:05:40
58 (60) KoliPoki 250:14:55 1:06:14
59 (58) W il Giro 250:15:06 1:06:25
60 (59) JACQUES ANQUETIL 250:15:22 1:06:41
61 (62) Angesky Bike 250:15:37 1:06:56
62 (64) Pchan1981 250:16:48 1:08:07
63 (57) LaNiord 250:17:13 1:08:32
64 (65) Team betto 250:17:20 1:08:39
65 (67) Andrej 250:17:52 1:09:11
66 (66) Tourpit 250:18:59 1:10:18
67 (69) FELIX GIMONDI` 250:19:12 1:10:31
68 (68) Filuccio in Tour 250:19:41 1:11:00
69 (63) adreminivlas 250:20:20 1:11:39
70 (70) "LUCE" V.BENEVENTO 250:21:13 1:12:32
71 (71) Avada Kedavra 250:22:09 1:13:28
72 (73) Commando Ultrą 250:23:30 1:14:49
73 (74) paoteam 250:23:49 1:15:08
74 (75) Yugo Team 250:24:04 1:15:23
75 (76) ad averci Baffi 250:24:37 1:15:56
76 (72) ICugini 250:24:58 1:16:17
77 (77) LMV 250:25:12 1:16:31
78 (78) Allegra grigata 250:27:03 1:18:22
79 (81) Galletti forza 9 250:27:06 1:18:25
80 (80) Paolo Procycling 250:27:36 1:18:55
81 (82) La Squadra dei Belli 250:28:10 1:19:29
82 (85) Ciclostars 250:28:24 1:19:43
83 (83) Dragatour 250:29:20 1:20:39
84 (84) Tufu 250:29:23 1:20:42
85 (86) Paolo Cycling Team 250:29:30 1:20:49
86 (87) CUCETTOUR 250:29:52 1:21:11
87 (88) Les Miserables 250:30:33 1:21:52
88 (79) RISCO51TOUR 250:31:33 1:22:52
89 (89) Pull down the saints 250:32:37 1:23:56
90 (92) LUISON BOBET 250:32:57 1:24:16
91 (91) DINAMO PARELLA FC2 250:33:40 1:24:59
92 (94) Agnello in scalata 250:33:46 1:25:05
93 (95) PASSEROTTO 9/11 250:33:49 1:25:08
94 (90) alby team 250:34:31 1:25:50
95 (98) Gli impressionisti 250:36:11 1:27:30
96 (97) Il Pirata 250:36:36 1:27:55
97 (96) frc 250:37:03 1:28:22
98 (93) Ecchissene 250:37:24 1:28:43
99 (100) iffoco 250:37:36 1:28:55
100 (99) Velo Beprix 250:38:09 1:29:28
Variaz. Squadra Tempo Dist.
Pag. 2 di 4 - Prima  <  1 2 3 4  >  Ultima

©2000-2019 Fantatornei®.com - Tutti i diritti riservati
Condizioni d'uso - Contattaci - Privacy